Year,Month,Day,Hour,Minute,Value (Times are PST for temperature in C)
2011,05,29,00,00,7.90
2011,05,29,00,01,7.90
2011,05,29,00,02,7.90
2011,05,29,00,03,7.90
2011,05,29,00,04,7.90
2011,05,29,00,05,7.80
2011,05,29,00,06,7.80
2011,05,29,00,07,7.80
2011,05,29,00,08,7.80
2011,05,29,00,09,7.80
2011,05,29,00,10,7.80
2011,05,29,00,11,7.80
2011,05,29,00,12,7.80
2011,05,29,00,13,7.80
2011,05,29,00,14,7.80
2011,05,29,00,15,7.80
2011,05,29,00,16,7.80
2011,05,29,00,17,7.80
2011,05,29,00,18,7.80
2011,05,29,00,19,7.80
2011,05,29,00,20,7.80
2011,05,29,00,21,7.80
2011,05,29,00,22,7.70
2011,05,29,00,23,7.70
2011,05,29,00,24,7.70
2011,05,29,00,25,7.70
2011,05,29,00,26,7.70
2011,05,29,00,27,7.70
2011,05,29,00,28,7.70
2011,05,29,00,29,7.70
2011,05,29,00,30,7.70
2011,05,29,00,31,7.70
2011,05,29,00,32,7.70
2011,05,29,00,33,7.70
2011,05,29,00,34,7.70
2011,05,29,00,35,7.70
2011,05,29,00,36,7.70
2011,05,29,00,37,7.70
2011,05,29,00,38,7.70
2011,05,29,00,39,7.70
2011,05,29,00,40,7.70
2011,05,29,00,41,7.70
2011,05,29,00,42,7.80
2011,05,29,00,43,7.70
2011,05,29,00,44,7.80
2011,05,29,00,45,7.80
2011,05,29,00,46,7.80
2011,05,29,00,47,7.80
2011,05,29,00,48,7.80
2011,05,29,00,49,7.80
2011,05,29,00,50,7.80
2011,05,29,00,51,7.80
2011,05,29,00,52,7.80
2011,05,29,00,53,7.80
2011,05,29,00,54,7.80
2011,05,29,00,55,7.80
2011,05,29,00,56,7.80
2011,05,29,00,57,7.80
2011,05,29,00,58,7.80
2011,05,29,00,59,7.80
2011,05,29,01,00,7.80
2011,05,29,01,01,7.80
2011,05,29,01,02,7.80
2011,05,29,01,03,7.80
2011,05,29,01,04,7.80
2011,05,29,01,05,7.80
2011,05,29,01,06,7.90
2011,05,29,01,07,7.90
2011,05,29,01,08,7.90
2011,05,29,01,09,7.90
2011,05,29,01,10,8.00
2011,05,29,01,11,8.00
2011,05,29,01,12,8.10
2011,05,29,01,13,8.10
2011,05,29,01,14,8.10
2011,05,29,01,15,8.20
2011,05,29,01,16,8.20
2011,05,29,01,17,8.20
2011,05,29,01,18,8.20
2011,05,29,01,19,8.30
2011,05,29,01,20,8.30
2011,05,29,01,21,8.30
2011,05,29,01,22,8.30
2011,05,29,01,23,8.30
2011,05,29,01,24,8.30
2011,05,29,01,25,8.30
2011,05,29,01,26,8.30
2011,05,29,01,27,8.30
2011,05,29,01,28,8.30
2011,05,29,01,29,8.30
2011,05,29,01,30,8.30
2011,05,29,01,31,8.30
2011,05,29,01,32,8.30
2011,05,29,01,33,8.30
2011,05,29,01,34,8.30
2011,05,29,01,35,8.30
2011,05,29,01,36,8.20
2011,05,29,01,37,8.20
2011,05,29,01,38,8.20
2011,05,29,01,39,8.30
2011,05,29,01,40,8.30
2011,05,29,01,41,8.30
2011,05,29,01,42,8.30
2011,05,29,01,43,8.30
2011,05,29,01,44,8.30
2011,05,29,01,45,8.30
2011,05,29,01,46,8.30
2011,05,29,01,47,8.30
2011,05,29,01,48,8.30
2011,05,29,01,49,8.30
2011,05,29,01,50,8.30
2011,05,29,01,51,8.30
2011,05,29,01,52,8.30
2011,05,29,01,53,8.30
2011,05,29,01,54,8.30
2011,05,29,01,55,8.30
2011,05,29,01,56,8.30
2011,05,29,01,57,8.30
2011,05,29,01,58,8.30
2011,05,29,01,59,8.30
2011,05,29,02,00,8.30
2011,05,29,02,01,8.30
2011,05,29,02,02,8.30
2011,05,29,02,03,8.30
2011,05,29,02,04,8.30
2011,05,29,02,05,8.30
2011,05,29,02,06,8.30
2011,05,29,02,07,8.30
2011,05,29,02,08,8.20
2011,05,29,02,09,8.20
2011,05,29,02,10,8.20
2011,05,29,02,11,8.20
2011,05,29,02,12,8.20
2011,05,29,02,13,8.20
2011,05,29,02,14,8.20
2011,05,29,02,15,8.20
2011,05,29,02,16,8.20
2011,05,29,02,17,8.20
2011,05,29,02,18,8.20
2011,05,29,02,19,8.20
2011,05,29,02,20,8.20
2011,05,29,02,21,8.20
2011,05,29,02,22,8.20
2011,05,29,02,23,8.20
2011,05,29,02,24,8.20
2011,05,29,02,25,8.20
2011,05,29,02,26,8.20
2011,05,29,02,27,8.20
2011,05,29,02,28,8.20
2011,05,29,02,29,8.20
2011,05,29,02,30,8.20
2011,05,29,02,31,8.10
2011,05,29,02,32,8.10
2011,05,29,02,33,8.10
2011,05,29,02,34,8.10
2011,05,29,02,35,8.10
2011,05,29,02,36,8.00
2011,05,29,02,37,8.00
2011,05,29,02,38,8.00
2011,05,29,02,39,7.90
2011,05,29,02,40,7.90
2011,05,29,02,41,7.90
2011,05,29,02,42,7.80
2011,05,29,02,43,7.80
2011,05,29,02,44,7.80
2011,05,29,02,45,7.70
2011,05,29,02,46,7.70
2011,05,29,02,47,7.70
2011,05,29,02,48,7.60
2011,05,29,02,49,7.60
2011,05,29,02,50,7.60
2011,05,29,02,51,7.50
2011,05,29,02,52,7.50
2011,05,29,02,53,7.50
2011,05,29,02,54,7.40
2011,05,29,02,55,7.40
2011,05,29,02,56,7.40
2011,05,29,02,57,7.30
2011,05,29,02,58,7.30
2011,05,29,02,59,7.30
2011,05,29,03,00,7.20
2011,05,29,03,01,7.20
2011,05,29,03,02,7.20
2011,05,29,03,03,7.20
2011,05,29,03,04,7.20
2011,05,29,03,05,7.20
2011,05,29,03,06,7.20
2011,05,29,03,07,7.10
2011,05,29,03,08,7.10
2011,05,29,03,09,7.10
2011,05,29,03,10,7.10
2011,05,29,03,11,7.00
2011,05,29,03,12,7.00
2011,05,29,03,13,7.00
2011,05,29,03,14,7.00
2011,05,29,03,15,6.90
2011,05,29,03,16,6.90
2011,05,29,03,17,6.90
2011,05,29,03,18,6.90
2011,05,29,03,19,6.90
2011,05,29,03,20,6.90
2011,05,29,03,21,6.80
2011,05,29,03,22,6.80
2011,05,29,03,23,6.80
2011,05,29,03,24,6.80
2011,05,29,03,25,6.80
2011,05,29,03,26,6.80
2011,05,29,03,27,6.70
2011,05,29,03,28,6.70
2011,05,29,03,29,6.70
2011,05,29,03,30,6.70
2011,05,29,03,31,6.70
2011,05,29,03,32,6.70
2011,05,29,03,33,6.70
2011,05,29,03,34,6.70
2011,05,29,03,35,6.70
2011,05,29,03,36,6.60
2011,05,29,03,37,6.60
2011,05,29,03,38,6.60
2011,05,29,03,39,6.60
2011,05,29,03,40,6.60
2011,05,29,03,41,6.60
2011,05,29,03,42,6.60
2011,05,29,03,43,6.60
2011,05,29,03,44,6.50
2011,05,29,03,45,6.50
2011,05,29,03,46,6.50
2011,05,29,03,47,6.40
2011,05,29,03,48,6.40
2011,05,29,03,49,6.40
2011,05,29,03,50,6.40
2011,05,29,03,51,6.40
2011,05,29,03,52,6.30
2011,05,29,03,53,6.30
2011,05,29,03,54,6.30
2011,05,29,03,55,6.30
2011,05,29,03,56,6.30
2011,05,29,03,57,6.30
2011,05,29,03,58,6.30
2011,05,29,03,59,6.20
2011,05,29,04,00,6.20
2011,05,29,04,01,6.20
2011,05,29,04,02,6.20
2011,05,29,04,03,6.20
2011,05,29,04,04,6.20
2011,05,29,04,05,6.10
2011,05,29,04,06,6.10
2011,05,29,04,07,6.10
2011,05,29,04,08,6.10
2011,05,29,04,09,6.10
2011,05,29,04,10,6.10
2011,05,29,04,11,6.00
2011,05,29,04,12,6.00
2011,05,29,04,13,6.00
2011,05,29,04,14,6.00
2011,05,29,04,15,6.00
2011,05,29,04,16,6.00
2011,05,29,04,17,6.00
2011,05,29,04,18,5.90
2011,05,29,04,19,5.90
2011,05,29,04,20,5.90
2011,05,29,04,21,5.90
2011,05,29,04,22,5.90
2011,05,29,04,23,5.90
2011,05,29,04,24,5.80
2011,05,29,04,25,5.80
2011,05,29,04,26,5.80
2011,05,29,04,27,5.80
2011,05,29,04,28,5.80
2011,05,29,04,29,5.80
2011,05,29,04,30,5.70
2011,05,29,04,31,5.70
2011,05,29,04,32,5.70
2011,05,29,04,33,5.70
2011,05,29,04,34,5.70
2011,05,29,04,35,5.70
2011,05,29,04,36,5.70
2011,05,29,04,37,5.70
2011,05,29,04,38,5.70
2011,05,29,04,39,5.70
2011,05,29,04,40,5.70
2011,05,29,04,41,5.70
2011,05,29,04,42,5.70
2011,05,29,04,43,5.70
2011,05,29,04,44,5.70
2011,05,29,04,45,5.70
2011,05,29,04,46,5.70
2011,05,29,04,47,5.70
2011,05,29,04,48,5.70
2011,05,29,04,49,5.70
2011,05,29,04,50,5.70
2011,05,29,04,51,5.70
2011,05,29,04,52,5.70
2011,05,29,04,53,5.70
2011,05,29,04,54,5.70
2011,05,29,04,55,5.70
2011,05,29,04,56,5.70
2011,05,29,04,57,5.70
2011,05,29,04,58,5.70
2011,05,29,04,59,5.70
2011,05,29,05,00,5.80
2011,05,29,05,01,5.70
2011,05,29,05,02,5.80
2011,05,29,05,03,5.70
2011,05,29,05,04,5.70
2011,05,29,05,05,5.70
2011,05,29,05,06,5.70
2011,05,29,05,07,5.70
2011,05,29,05,08,5.70
2011,05,29,05,09,5.70
2011,05,29,05,10,5.70
2011,05,29,05,11,5.70
2011,05,29,05,12,5.70
2011,05,29,05,13,5.70
2011,05,29,05,14,5.70
2011,05,29,05,15,5.70
2011,05,29,05,16,5.70
2011,05,29,05,17,5.70
2011,05,29,05,18,5.70
2011,05,29,05,19,5.70
2011,05,29,05,20,5.70
2011,05,29,05,21,5.70
2011,05,29,05,22,5.70
2011,05,29,05,23,5.70
2011,05,29,05,24,5.70
2011,05,29,05,25,5.70
2011,05,29,05,26,5.70
2011,05,29,05,27,5.70
2011,05,29,05,28,5.70
2011,05,29,05,29,5.70
2011,05,29,05,30,5.60
2011,05,29,05,31,5.60
2011,05,29,05,32,5.60
2011,05,29,05,33,5.60
2011,05,29,05,34,5.60
2011,05,29,05,35,5.60
2011,05,29,05,36,5.60
2011,05,29,05,37,5.60
2011,05,29,05,38,5.60
2011,05,29,05,39,5.50
2011,05,29,05,40,5.50
2011,05,29,05,41,5.50
2011,05,29,05,42,5.50
2011,05,29,05,43,5.40
2011,05,29,05,44,5.40
2011,05,29,05,45,5.40
2011,05,29,05,46,5.40
2011,05,29,05,47,5.40
2011,05,29,05,48,5.40
2011,05,29,05,49,5.40
2011,05,29,05,50,5.40
2011,05,29,05,51,5.30
2011,05,29,05,52,5.30
2011,05,29,05,53,5.30
2011,05,29,05,54,5.30
2011,05,29,05,55,5.30
2011,05,29,05,56,5.30
2011,05,29,05,57,5.30
2011,05,29,05,58,5.30
2011,05,29,05,59,5.30
2011,05,29,06,00,5.30
2011,05,29,06,01,5.30
2011,05,29,06,02,5.20
2011,05,29,06,03,5.20
2011,05,29,06,04,5.20
2011,05,29,06,05,5.20
2011,05,29,06,06,5.20
2011,05,29,06,07,5.20
2011,05,29,06,08,5.20
2011,05,29,06,09,5.20
2011,05,29,06,10,5.20
2011,05,29,06,11,5.20
2011,05,29,06,12,5.20
2011,05,29,06,13,5.20
2011,05,29,06,14,5.20
2011,05,29,06,15,5.20
2011,05,29,06,16,5.20
2011,05,29,06,17,5.20
2011,05,29,06,18,5.20
2011,05,29,06,19,5.20
2011,05,29,06,20,5.20
2011,05,29,06,21,5.20
2011,05,29,06,22,5.20
2011,05,29,06,23,5.20
2011,05,29,06,24,5.20
2011,05,29,06,25,5.20
2011,05,29,06,26,5.20
2011,05,29,06,27,5.20
2011,05,29,06,28,5.20
2011,05,29,06,29,5.20
2011,05,29,06,30,5.20
2011,05,29,06,31,5.20
2011,05,29,06,32,5.30
2011,05,29,06,33,5.30
2011,05,29,06,34,5.30
2011,05,29,06,35,5.30
2011,05,29,06,36,5.30
2011,05,29,06,37,5.30
2011,05,29,06,38,5.30
2011,05,29,06,39,5.40
2011,05,29,06,40,5.40
2011,05,29,06,41,5.50
2011,05,29,06,42,5.50
2011,05,29,06,43,5.50
2011,05,29,06,44,5.50
2011,05,29,06,45,5.60
2011,05,29,06,46,5.60
2011,05,29,06,47,5.60
2011,05,29,06,48,5.70
2011,05,29,06,49,5.70
2011,05,29,06,50,5.70
2011,05,29,06,51,5.80
2011,05,29,06,52,5.80
2011,05,29,06,53,5.80
2011,05,29,06,54,5.90
2011,05,29,06,55,5.90
2011,05,29,06,56,5.90
2011,05,29,06,57,5.90
2011,05,29,06,58,6.00
2011,05,29,06,59,6.00
2011,05,29,07,00,6.00
2011,05,29,07,01,6.10
2011,05,29,07,02,6.10
2011,05,29,07,03,6.10
2011,05,29,07,04,6.10
2011,05,29,07,05,6.10
2011,05,29,07,06,6.20
2011,05,29,07,07,6.20
2011,05,29,07,08,6.20
2011,05,29,07,09,6.30
2011,05,29,07,10,6.30
2011,05,29,07,11,6.30
2011,05,29,07,12,6.30
2011,05,29,07,13,6.30
2011,05,29,07,14,6.40
2011,05,29,07,15,6.40
2011,05,29,07,16,6.40
2011,05,29,07,17,6.40
2011,05,29,07,18,6.50
2011,05,29,07,19,6.50
2011,05,29,07,20,6.50
2011,05,29,07,21,6.60
2011,05,29,07,22,6.60
2011,05,29,07,23,6.60
2011,05,29,07,24,6.70
2011,05,29,07,25,6.70
2011,05,29,07,26,6.70
2011,05,29,07,27,6.70
2011,05,29,07,28,6.80
2011,05,29,07,29,6.80
2011,05,29,07,30,6.80
2011,05,29,07,31,6.90
2011,05,29,07,32,6.90
2011,05,29,07,33,6.90
2011,05,29,07,34,7.00
2011,05,29,07,35,7.00
2011,05,29,07,36,7.00
2011,05,29,07,37,7.10
2011,05,29,07,38,7.10
2011,05,29,07,39,7.10
2011,05,29,07,40,7.20
2011,05,29,07,41,7.20
2011,05,29,07,42,7.20
2011,05,29,07,43,7.20
2011,05,29,07,44,7.20
2011,05,29,07,45,7.20
2011,05,29,07,46,7.30
2011,05,29,07,47,7.30
2011,05,29,07,48,7.30
2011,05,29,07,49,7.30
2011,05,29,07,50,7.40
2011,05,29,07,51,7.40
2011,05,29,07,52,7.40
2011,05,29,07,53,7.40
2011,05,29,07,54,7.50
2011,05,29,07,55,7.50
2011,05,29,07,56,7.50
2011,05,29,07,57,7.60
2011,05,29,07,58,7.60
2011,05,29,07,59,7.60
2011,05,29,08,00,7.60
2011,05,29,08,01,7.70
2011,05,29,08,02,7.70
2011,05,29,08,03,7.70
2011,05,29,08,04,7.70
2011,05,29,08,05,7.80
2011,05,29,08,06,7.80
2011,05,29,08,07,7.80
2011,05,29,08,08,7.90
2011,05,29,08,09,7.90
2011,05,29,08,10,7.90
2011,05,29,08,11,8.00
2011,05,29,08,12,8.00
2011,05,29,08,13,8.10
2011,05,29,08,14,8.10
2011,05,29,08,15,8.20
2011,05,29,08,16,8.20
2011,05,29,08,17,8.20
2011,05,29,08,18,8.30
2011,05,29,08,19,8.30
2011,05,29,08,20,8.40
2011,05,29,08,21,8.40
2011,05,29,08,22,8.50
2011,05,29,08,23,8.60
2011,05,29,08,24,8.60
2011,05,29,08,25,8.60
2011,05,29,08,26,8.70
2011,05,29,08,27,8.70
2011,05,29,08,28,8.80
2011,05,29,08,29,8.80
2011,05,29,08,30,8.90
2011,05,29,08,31,8.90
2011,05,29,08,32,9.00
2011,05,29,08,33,9.10
2011,05,29,08,34,9.10
2011,05,29,08,35,9.20
2011,05,29,08,36,9.20
2011,05,29,08,37,9.30
2011,05,29,08,38,9.30
2011,05,29,08,39,9.40
2011,05,29,08,40,9.50
2011,05,29,08,41,9.60
2011,05,29,08,42,9.70
2011,05,29,08,43,9.80
2011,05,29,08,44,9.80
2011,05,29,08,45,9.90
2011,05,29,08,46,10.00
2011,05,29,08,47,10.10
2011,05,29,08,48,10.20
2011,05,29,08,49,10.20
2011,05,29,08,50,10.30
2011,05,29,08,51,10.40
2011,05,29,08,52,10.40
2011,05,29,08,53,10.50
2011,05,29,08,54,10.60
2011,05,29,08,55,10.70
2011,05,29,08,56,10.70
2011,05,29,08,57,10.80
2011,05,29,08,58,10.90
2011,05,29,08,59,10.90
2011,05,29,09,00,11.00
2011,05,29,09,01,11.10
2011,05,29,09,02,11.10
2011,05,29,09,03,11.20
2011,05,29,09,04,11.30
2011,05,29,09,05,11.30
2011,05,29,09,06,11.30
2011,05,29,09,07,11.40
2011,05,29,09,08,11.40
2011,05,29,09,09,11.50
2011,05,29,09,10,11.50
2011,05,29,09,11,11.60
2011,05,29,09,12,11.60
2011,05,29,09,13,11.60
2011,05,29,09,14,11.70
2011,05,29,09,15,11.70
2011,05,29,09,16,11.70
2011,05,29,09,17,11.80
2011,05,29,09,18,11.80
2011,05,29,09,19,11.90
2011,05,29,09,20,12.00
2011,05,29,09,21,12.10
2011,05,29,09,22,12.10
2011,05,29,09,23,12.20
2011,05,29,09,24,12.30
2011,05,29,09,25,12.30
2011,05,29,09,26,12.40
2011,05,29,09,27,12.40
2011,05,29,09,28,12.50
2011,05,29,09,29,12.60
2011,05,29,09,30,12.60
2011,05,29,09,31,12.70
2011,05,29,09,32,12.80
2011,05,29,09,33,12.90
2011,05,29,09,34,13.00
2011,05,29,09,35,13.10
2011,05,29,09,36,13.10
2011,05,29,09,37,13.20
2011,05,29,09,38,13.30
2011,05,29,09,39,13.30
2011,05,29,09,40,13.40
2011,05,29,09,41,13.50
2011,05,29,09,42,13.60
2011,05,29,09,43,13.60
2011,05,29,09,44,13.70
2011,05,29,09,45,13.70
2011,05,29,09,46,13.80
2011,05,29,09,47,13.80
2011,05,29,09,48,13.90
2011,05,29,09,49,13.90
2011,05,29,09,50,14.00
2011,05,29,09,51,14.00
2011,05,29,09,52,14.10
2011,05,29,09,53,14.10
2011,05,29,09,54,14.10
2011,05,29,09,55,14.20
2011,05,29,09,56,14.20
2011,05,29,09,57,14.30
2011,05,29,09,58,14.30
2011,05,29,09,59,14.30
2011,05,29,10,00,14.40
2011,05,29,10,01,14.40
2011,05,29,10,02,14.50
2011,05,29,10,03,14.50
2011,05,29,10,04,14.60
2011,05,29,10,05,14.70
2011,05,29,10,06,14.60
2011,05,29,10,07,14.70
2011,05,29,10,08,14.70
2011,05,29,10,09,14.70
2011,05,29,10,10,14.80
2011,05,29,10,11,14.80
2011,05,29,10,12,14.90
2011,05,29,10,13,15.00
2011,05,29,10,14,15.00
2011,05,29,10,15,15.00
2011,05,29,10,16,15.00
2011,05,29,10,17,15.00
2011,05,29,10,18,15.00
2011,05,29,10,19,15.20
2011,05,29,10,20,15.20
2011,05,29,10,21,15.00
2011,05,29,10,22,15.00
2011,05,29,10,23,15.00
2011,05,29,10,24,15.10
2011,05,29,10,25,15.10
2011,05,29,10,26,15.20
2011,05,29,10,27,15.20
2011,05,29,10,28,15.30
2011,05,29,10,29,15.30
2011,05,29,10,30,15.40
2011,05,29,10,31,15.40
2011,05,29,10,32,15.40
2011,05,29,10,33,15.40
2011,05,29,10,34,15.40
2011,05,29,10,35,15.40
2011,05,29,10,36,15.40
2011,05,29,10,37,15.40
2011,05,29,10,38,15.40
2011,05,29,10,39,15.40
2011,05,29,10,40,15.50
2011,05,29,10,41,15.50
2011,05,29,10,42,15.50
2011,05,29,10,43,15.50
2011,05,29,10,44,15.60
2011,05,29,10,45,15.60
2011,05,29,10,46,15.60
2011,05,29,10,47,15.70
2011,05,29,10,48,15.70
2011,05,29,10,49,15.70
2011,05,29,10,50,15.70
2011,05,29,10,51,15.60
2011,05,29,10,52,15.60
2011,05,29,10,53,15.60
2011,05,29,10,54,15.60
2011,05,29,10,55,15.60
2011,05,29,10,56,15.60
2011,05,29,10,57,15.70
2011,05,29,10,58,15.70
2011,05,29,10,59,15.70
2011,05,29,11,00,15.80
2011,05,29,11,01,15.80
2011,05,29,11,02,15.80
2011,05,29,11,03,15.80
2011,05,29,11,04,15.80
2011,05,29,11,05,15.80
2011,05,29,11,06,15.80
2011,05,29,11,07,15.80
2011,05,29,11,08,15.90
2011,05,29,11,09,15.90
2011,05,29,11,10,15.80
2011,05,29,11,11,15.90
2011,05,29,11,12,15.90
2011,05,29,11,13,15.90
2011,05,29,11,14,15.90
2011,05,29,11,15,15.90
2011,05,29,11,16,15.90
2011,05,29,11,17,15.90
2011,05,29,11,18,15.80
2011,05,29,11,19,15.80
2011,05,29,11,20,15.80
2011,05,29,11,21,15.90
2011,05,29,11,22,16.00
2011,05,29,11,23,16.00
2011,05,29,11,24,16.00
2011,05,29,11,25,16.00
2011,05,29,11,26,15.90
2011,05,29,11,27,15.90
2011,05,29,11,28,15.90
2011,05,29,11,29,15.90
2011,05,29,11,30,16.00
2011,05,29,11,31,16.00
2011,05,29,11,32,16.10
2011,05,29,11,33,16.10
2011,05,29,11,34,16.20
2011,05,29,11,35,16.20
2011,05,29,11,36,16.30
2011,05,29,11,37,16.40
2011,05,29,11,38,16.40
2011,05,29,11,39,16.40
2011,05,29,11,40,16.50
2011,05,29,11,41,16.50
2011,05,29,11,42,16.60
2011,05,29,11,43,16.60
2011,05,29,11,44,16.60
2011,05,29,11,45,16.70
2011,05,29,11,46,16.70
2011,05,29,11,47,16.60
2011,05,29,11,48,16.60
2011,05,29,11,49,16.60
2011,05,29,11,50,16.60
2011,05,29,11,51,16.60
2011,05,29,11,52,16.60
2011,05,29,11,53,16.50
2011,05,29,11,54,16.50
2011,05,29,11,55,16.50
2011,05,29,11,56,16.60
2011,05,29,11,57,16.50
2011,05,29,11,58,16.50
2011,05,29,11,59,16.50
2011,05,29,12,00,16.50
2011,05,29,12,01,16.50
2011,05,29,12,02,16.50
2011,05,29,12,03,16.50
2011,05,29,12,04,16.60
2011,05,29,12,05,16.60
2011,05,29,12,06,16.60
2011,05,29,12,07,16.60
2011,05,29,12,08,16.60
2011,05,29,12,09,16.60
2011,05,29,12,10,16.60
2011,05,29,12,11,16.50
2011,05,29,12,12,16.50
2011,05,29,12,13,16.50
2011,05,29,12,14,16.50
2011,05,29,12,15,16.60
2011,05,29,12,16,16.70
2011,05,29,12,17,16.70
2011,05,29,12,18,16.70
2011,05,29,12,19,16.80
2011,05,29,12,20,16.80
2011,05,29,12,21,16.80
2011,05,29,12,22,16.80
2011,05,29,12,23,16.80
2011,05,29,12,24,16.80
2011,05,29,12,25,16.80
2011,05,29,12,26,16.90
2011,05,29,12,27,16.90
2011,05,29,12,28,16.90
2011,05,29,12,29,16.90
2011,05,29,12,30,16.90
2011,05,29,12,31,16.80
2011,05,29,12,32,16.70
2011,05,29,12,33,16.70
2011,05,29,12,34,16.70
2011,05,29,12,35,16.70
2011,05,29,12,36,16.80
2011,05,29,12,37,16.80
2011,05,29,12,38,16.80
2011,05,29,12,39,16.80
2011,05,29,12,40,16.70
2011,05,29,12,41,16.70
2011,05,29,12,42,16.60
2011,05,29,12,43,16.60
2011,05,29,12,44,16.60
2011,05,29,12,45,16.60
2011,05,29,12,46,16.60
2011,05,29,12,47,16.60
2011,05,29,12,48,16.60
2011,05,29,12,49,16.50
2011,05,29,12,50,16.40
2011,05,29,12,51,16.40
2011,05,29,12,52,16.50
2011,05,29,12,53,16.50
2011,05,29,12,54,16.50
2011,05,29,12,55,16.60
2011,05,29,12,56,16.70
2011,05,29,12,57,16.70
2011,05,29,12,58,16.80
2011,05,29,12,59,16.80
2011,05,29,13,00,16.90
2011,05,29,13,01,17.00
2011,05,29,13,02,17.00
2011,05,29,13,03,17.10
2011,05,29,13,04,17.10
2011,05,29,13,05,17.10
2011,05,29,13,06,17.10
2011,05,29,13,07,17.20
2011,05,29,13,08,17.30
2011,05,29,13,09,17.20
2011,05,29,13,10,17.20
2011,05,29,13,11,17.10
2011,05,29,13,12,17.10
2011,05,29,13,13,17.10
2011,05,29,13,14,17.00
2011,05,29,13,15,16.90
2011,05,29,13,16,16.80
2011,05,29,13,17,16.80
2011,05,29,13,18,16.70
2011,05,29,13,19,16.70
2011,05,29,13,20,16.70
2011,05,29,13,21,16.60
2011,05,29,13,22,16.60
2011,05,29,13,23,16.70
2011,05,29,13,24,16.80
2011,05,29,13,25,16.80
2011,05,29,13,26,16.80
2011,05,29,13,27,16.80
2011,05,29,13,28,16.70
2011,05,29,13,29,16.70
2011,05,29,13,30,16.70
2011,05,29,13,31,16.70
2011,05,29,13,32,16.70
2011,05,29,13,33,16.70
2011,05,29,13,34,16.70
2011,05,29,13,35,16.70
2011,05,29,13,36,16.70
2011,05,29,13,37,16.70
2011,05,29,13,38,16.80
2011,05,29,13,39,16.70
2011,05,29,13,40,16.70
2011,05,29,13,41,16.70
2011,05,29,13,42,16.70
2011,05,29,13,43,16.60
2011,05,29,13,44,16.60
2011,05,29,13,45,16.50
2011,05,29,13,46,16.50
2011,05,29,13,47,16.40
2011,05,29,13,48,16.50
2011,05,29,13,49,16.50
2011,05,29,13,50,16.60
2011,05,29,13,51,16.70
2011,05,29,13,52,16.70
2011,05,29,13,53,16.80
2011,05,29,13,54,16.90
2011,05,29,13,55,17.00
2011,05,29,13,56,17.10
2011,05,29,13,57,17.20
2011,05,29,13,58,17.20
2011,05,29,13,59,17.30
2011,05,29,14,00,17.30
2011,05,29,14,01,17.40
2011,05,29,14,02,17.40
2011,05,29,14,03,17.40
2011,05,29,14,04,17.40
2011,05,29,14,05,17.40
2011,05,29,14,06,17.40
2011,05,29,14,07,17.40
2011,05,29,14,08,17.40
2011,05,29,14,09,17.40
2011,05,29,14,10,17.50
2011,05,29,14,11,17.60
2011,05,29,14,12,17.60
2011,05,29,14,13,17.50
2011,05,29,14,14,17.40
2011,05,29,14,15,17.30
2011,05,29,14,16,17.20
2011,05,29,14,17,17.20
2011,05,29,14,18,17.20
2011,05,29,14,19,17.20
2011,05,29,14,20,17.30
2011,05,29,14,21,17.40
2011,05,29,14,22,17.50
2011,05,29,14,23,17.50
2011,05,29,14,24,17.50
2011,05,29,14,25,17.60
2011,05,29,14,26,17.60
2011,05,29,14,27,17.60
2011,05,29,14,28,17.70
2011,05,29,14,29,17.70
2011,05,29,14,30,17.80
2011,05,29,14,31,17.90
2011,05,29,14,32,17.90
2011,05,29,14,33,17.90
2011,05,29,14,34,17.80
2011,05,29,14,35,17.80
2011,05,29,14,36,17.70
2011,05,29,14,37,17.70
2011,05,29,14,38,17.50
2011,05,29,14,39,17.40
2011,05,29,14,40,17.40
2011,05,29,14,41,17.40
2011,05,29,14,42,17.40
2011,05,29,14,43,17.50
2011,05,29,14,44,17.50
2011,05,29,14,45,17.50
2011,05,29,14,46,17.40
2011,05,29,14,47,17.40
2011,05,29,14,48,17.40
2011,05,29,14,49,17.40
2011,05,29,14,50,17.40
2011,05,29,14,51,17.40
2011,05,29,14,52,17.30
2011,05,29,14,53,17.30
2011,05,29,14,54,17.20
2011,05,29,14,55,17.30
2011,05,29,14,56,17.30
2011,05,29,14,57,17.30
2011,05,29,14,58,17.40
2011,05,29,14,59,17.40
2011,05,29,15,00,17.40
2011,05,29,15,01,17.40
2011,05,29,15,02,17.40
2011,05,29,15,03,17.30
2011,05,29,15,04,17.30
2011,05,29,15,05,17.20
2011,05,29,15,06,17.10
2011,05,29,15,07,17.00
2011,05,29,15,08,17.00
2011,05,29,15,09,17.00
2011,05,29,15,10,16.90
2011,05,29,15,11,16.90
2011,05,29,15,12,17.00
2011,05,29,15,13,17.00
2011,05,29,15,15,17.00
2011,05,29,15,16,17.00
2011,05,29,15,17,17.00
2011,05,29,15,18,17.10
2011,05,29,15,19,17.10
2011,05,29,15,20,17.10
2011,05,29,15,21,17.10
2011,05,29,15,22,17.20
2011,05,29,15,23,17.20
2011,05,29,15,24,17.20
2011,05,29,15,25,17.20
2011,05,29,15,26,17.10
2011,05,29,15,27,17.20
2011,05,29,15,28,17.20
2011,05,29,15,29,17.20
2011,05,29,15,30,17.30
2011,05,29,15,31,17.30
2011,05,29,15,32,17.30
2011,05,29,15,33,17.40
2011,05,29,15,34,17.40
2011,05,29,15,35,17.40
2011,05,29,15,36,17.40
2011,05,29,15,37,17.40
2011,05,29,15,38,17.40
2011,05,29,15,39,17.40
2011,05,29,15,40,17.40
2011,05,29,15,41,17.50
2011,05,29,15,42,17.60
2011,05,29,15,43,17.60
2011,05,29,15,44,17.60
2011,05,29,15,45,17.50
2011,05,29,15,46,17.40
2011,05,29,15,47,17.50
2011,05,29,15,48,17.50
2011,05,29,15,49,17.50
2011,05,29,15,50,17.60
2011,05,29,15,51,17.60
2011,05,29,15,52,17.60
2011,05,29,15,53,17.70
2011,05,29,15,54,17.70
2011,05,29,15,55,17.70
2011,05,29,15,56,17.70
2011,05,29,15,57,17.60
2011,05,29,15,58,17.60
2011,05,29,15,59,17.60
2011,05,29,16,00,17.50
2011,05,29,16,01,17.50
2011,05,29,16,02,17.60
2011,05,29,16,03,17.60
2011,05,29,16,04,17.50
2011,05,29,16,05,17.50
2011,05,29,16,06,17.40
2011,05,29,16,07,17.40
2011,05,29,16,08,17.50
2011,05,29,16,09,17.50
2011,05,29,16,10,17.60
2011,05,29,16,11,17.60
2011,05,29,16,12,17.70
2011,05,29,16,13,17.70
2011,05,29,16,14,17.70
2011,05,29,16,15,17.70
2011,05,29,16,16,17.60
2011,05,29,16,17,17.60
2011,05,29,16,18,17.70
2011,05,29,16,19,17.70
2011,05,29,16,20,17.80
2011,05,29,16,21,17.80
2011,05,29,16,22,17.90
2011,05,29,16,23,17.90
2011,05,29,16,24,17.80
2011,05,29,16,25,17.90
2011,05,29,16,26,17.90
2011,05,29,16,27,18.00
2011,05,29,16,28,18.00
2011,05,29,16,29,18.10
2011,05,29,16,30,18.20
2011,05,29,16,31,18.20
2011,05,29,16,32,18.20
2011,05,29,16,33,18.30
2011,05,29,16,34,18.30
2011,05,29,16,35,18.30
2011,05,29,16,36,18.20
2011,05,29,16,37,18.20
2011,05,29,16,38,18.20
2011,05,29,16,39,18.20
2011,05,29,16,40,18.20
2011,05,29,16,41,18.30
2011,05,29,16,42,18.30
2011,05,29,16,43,18.30
2011,05,29,16,44,18.40
2011,05,29,16,45,18.40
2011,05,29,16,46,18.40
2011,05,29,16,47,18.40
2011,05,29,16,48,18.40
2011,05,29,16,49,18.40
2011,05,29,16,50,18.50
2011,05,29,16,51,18.50
2011,05,29,16,52,18.60
2011,05,29,16,53,18.50
2011,05,29,16,54,18.50
2011,05,29,16,55,18.50
2011,05,29,16,56,18.50
2011,05,29,16,57,18.60
2011,05,29,16,58,18.60
2011,05,29,16,59,18.60
2011,05,29,17,00,18.70
2011,05,29,17,01,18.70
2011,05,29,17,02,18.80
2011,05,29,17,03,18.80
2011,05,29,17,04,18.80
2011,05,29,17,05,18.80
2011,05,29,17,06,18.70
2011,05,29,17,07,18.70
2011,05,29,17,08,18.70
2011,05,29,17,09,18.70
2011,05,29,17,10,18.70
2011,05,29,17,11,18.60
2011,05,29,17,12,18.60
2011,05,29,17,13,18.60
2011,05,29,17,14,18.60
2011,05,29,17,15,18.60
2011,05,29,17,16,18.60
2011,05,29,17,17,18.60
2011,05,29,17,18,18.60
2011,05,29,17,19,18.50
2011,05,29,17,20,18.40
2011,05,29,17,21,18.30
2011,05,29,17,22,18.20
2011,05,29,17,23,18.10
2011,05,29,17,24,18.10
2011,05,29,17,25,18.10
2011,05,29,17,26,18.00
2011,05,29,17,27,17.90
2011,05,29,17,28,17.90
2011,05,29,17,29,17.90
2011,05,29,17,30,18.00
2011,05,29,17,31,18.00
2011,05,29,17,32,18.00
2011,05,29,17,33,18.10
2011,05,29,17,34,18.10
2011,05,29,17,35,18.10
2011,05,29,17,36,18.00
2011,05,29,17,37,18.00
2011,05,29,17,38,18.00
2011,05,29,17,39,18.00
2011,05,29,17,40,18.00
2011,05,29,17,41,17.90
2011,05,29,17,42,17.90
2011,05,29,17,43,17.90